Santa Maria, CA

9:39 PM PDT on September 29, 2016 (GMT -0700)
Santa Maria Public Airport / Captain G. Allan Hancock Field

Weather History for KSMX - October, 2011

Change the Weather History Date:

Tuesday, October 11, 2011

  Actual Average Record
Temperature  
Mean Temperature 71 °F 62 °F  
Max Temperature 86 °F 73 °F 98 °F (1918)
Min Temperature 56 °F 50 °F 32 °F (1924)
Degree Days  
Heating Degree Days 0 4  
Month to date heating degree days 36 44  
Since 1 July heating degree days 191 261  
Cooling Degree Days 6 1  
Month to date cooling degree days 6 11  
Year to date cooling degree days 65 93  
Growing Degree Days 20 (Base 50)    
Moisture  
Dew Point 57 °F    
Average Humidity 72    
Maximum Humidity 100    
Minimum Humidity 43    
Precipitation  
Precipitation 0.00 in 0.01 in 0.52 in (1963)
Month to date precipitation 0.75 0.12  
Year to date precipitation 11.81 10.02  
Since 1 July precipitation 0.84  
Sea Level Pressure  
Sea Level Pressure 29.96 in    
Wind  
Wind Speed 10 mph (NW)    
Max Wind Speed 23 mph    
Max Gust Speed 31 mph    
Visibility 7 miles    
Events Fog    
T = Trace of Precipitation, MM = Missing Value Source: NWS Daily Summary

Daily Weather History Graph

Daily Weather History Graph

Search for Another Location

Airport or City:

Trip Planner

Search our weather history database for the weather conditions in past years. The results will help you decide how hot, cold, wet, or windy it might be!

Date:

Astronomy

Oct. 11, 2011 Rise Set
Actual Time 7:04 AM PDT 6:32 PM PDT
Civil Twilight 6:38 AM PDT 6:57 PM PDT
Nautical Twilight 6:09 AM PDT 7:26 PM PDT
Astronomical Twilight 5:40 AM PDT 7:56 PM PDT
Moon 6:09 PM PDT (10/11) 6:45 AM PDT (10/11)
Length of Visible Light 12h 18m
Length of Day
11h 28m
Full, 100% of the Moon is Illuminated
Oct 11
Full
Oct 11
Full
Oct 19
Last Quarter
Oct 26
New
Nov 2
First Quarter

Hourly Weather History & Observations

Time (PDT) Temp. Heat Index Dew Point Humidity Pressure Visibility Wind Dir Wind Speed Gust Speed Precip Events Conditions
12:17 AM 57.2 °F - 55.4 °F 94% 29.97 in 0.2 mi Calm Calm - N/A Fog Fog
12:51 AM 57.9 °F - 57.0 °F 97% 29.98 in 0.2 mi Calm Calm - N/A Fog Fog
1:51 AM 57.9 °F - 55.9 °F 93% 29.98 in 0.2 mi NW 3.5 mph - N/A Fog Fog
2:32 AM 57.2 °F - 55.4 °F 94% 29.97 in 0.5 mi NW 3.5 mph - N/A Fog Fog
2:51 AM 57.0 °F - 55.9 °F 96% 29.98 in 0.5 mi Calm Calm - N/A Fog Fog
2:58 AM 57.2 °F - 55.4 °F 94% 29.97 in 1.5 mi Calm Calm - N/A   Mostly Cloudy
3:10 AM 57.2 °F - 55.4 °F 94% 29.97 in 5.0 mi NNW 4.6 mph - N/A   Partly Cloudy
3:51 AM 57.0 °F - 55.9 °F 96% 29.97 in 6.0 mi Calm Calm - N/A   Clear
4:51 AM 57.0 °F - 55.0 °F 93% 29.96 in 8.0 mi NW 4.6 mph - N/A   Clear
5:51 AM 57.0 °F - 55.0 °F 93% 29.97 in 3.0 mi NW 6.9 mph - N/A   Mostly Cloudy
5:56 AM 57.2 °F - 55.4 °F 94% 29.96 in 1.8 mi NW 6.9 mph - N/A   Mostly Cloudy
6:18 AM 57.2 °F - 55.4 °F 94% 29.97 in 8.0 mi NW 5.8 mph - N/A   Scattered Clouds
6:51 AM 57.9 °F - 55.9 °F 93% 29.98 in 10.0 mi NW 6.9 mph - N/A   Clear
7:51 AM 61.0 °F - 57.9 °F 90% 29.99 in 10.0 mi NW 4.6 mph - N/A   Clear
8:51 AM 66.0 °F - 61.0 °F 84% 29.99 in 10.0 mi WNW 10.4 mph - N/A   Clear
9:51 AM 73.9 °F - 60.1 °F 62% 29.99 in 10.0 mi NW 15.0 mph - N/A   Clear
10:20 AM 78.8 °F - 57.2 °F 47% 29.98 in 10.0 mi NE 19.6 mph 25.3 mph N/A   Clear
10:51 AM 79.0 °F - 57.9 °F 48% 29.98 in 10.0 mi NNE 18.4 mph 26.5 mph N/A   Clear
11:51 AM 81.0 °F 81.3 °F 59.0 °F 47% 29.97 in 10.0 mi NNE 20.7 mph 27.6 mph N/A   Clear
12:51 PM 84.0 °F 83.8 °F 59.0 °F 43% 29.95 in 10.0 mi NE 12.7 mph 21.9 mph N/A   Partly Cloudy
1:51 PM 84.9 °F 84.4 °F 59.0 °F 41% 29.93 in 10.0 mi North 12.7 mph 23.0 mph N/A   Clear
2:09 PM 78.8 °F - 60.8 °F 54% 29.93 in 10.0 mi WNW 17.3 mph 23.0 mph N/A   Clear
2:22 PM 78.8 °F - 60.8 °F 54% 29.93 in 9.0 mi WNW 19.6 mph 25.3 mph N/A   Clear
2:51 PM 77.0 °F - 59.0 °F 54% 29.92 in 9.0 mi WNW 20.7 mph - N/A   Clear
3:51 PM 75.0 °F - 59.0 °F 57% 29.93 in 8.0 mi WNW 17.3 mph - N/A   Clear
4:51 PM 72.0 °F - 57.9 °F 61% 29.92 in 8.0 mi WNW 13.8 mph - N/A   Clear
5:51 PM 68.0 °F - 57.0 °F 68% 29.92 in 7.0 mi WNW 10.4 mph - N/A   Clear
6:51 PM 62.1 °F - 55.9 °F 80% 29.94 in 10.0 mi WNW 6.9 mph - N/A   Clear
7:51 PM 61.0 °F - 55.9 °F 83% 29.95 in 9.0 mi Calm Calm - N/A   Clear
8:51 PM 62.1 °F - 55.9 °F 80% 29.95 in 9.0 mi North 3.5 mph - N/A   Clear
9:51 PM 60.1 °F - 55.0 °F 83% 29.95 in 6.0 mi Calm Calm - N/A   Haze
10:51 PM 60.1 °F - 55.0 °F 83% 29.95 in 8.0 mi West 4.6 mph - N/A   Clear
11:37 PM 73.4 °F - 57.2 °F 57% 29.95 in 10.0 mi North 15.0 mph - N/A   Clear
11:51 PM 75.0 °F - 55.9 °F 51% 29.95 in 10.0 mi North 16.1 mph - N/A   Clear